1508061600.37,5817,15.19,74940.0,12.73,-18.69,-19.37,0,*7B
1508061601.62,5818,15.25,74942.3,12.75,-19.31,-19.75,0,*78
1508061602.88,5819,15.25,74944.0,12.75,-19.27,-19.95,0,*70
1508061604.13,5820,15.25,74944.5,12.75,-18.99,-19.61,0,*75
1508061605.33,5821,15.25,74948.5,12.73,-20.93,-21.77,0,*7F
1508061606.54,5822,15.25,74946.0,12.73,-19.51,-20.25,0,*7E
1508061607.75,5823,15.25,74938.5,12.73,-19.75,-20.39,0,*74
1508061609.0,5824,15.19,74936.0,12.69,-20.35,-21.23,0,*7C
1508061610.25,5825,15.19,74934.8,12.69,-19.57,-20.15,0,*77
1508061611.5,5826,15.25,74936.3,12.69,-19.23,-19.81,0,*70
1508061612.7,5827,15.19,74934.5,12.69,-18.73,-19.37,0,*78
1508061613.9,5828,15.19,74930.5,12.69,-18.83,-19.51,0,*78
1508061615.1,5829,15.25,74936.0,12.69,-19.99,-20.73,0,*79
1508061616.33,5830,15.19,74936.0,12.73,-19.47,-20.15,0,*79
1508061617.55,5831,15.25,74940.8,12.69,-19.81,-20.59,0,*71
1508061618.77,5832,15.25,74934.8,12.73,-19.03,-19.61,0,*72
1508061620.03,5833,15.25,74936.8,12.67,-20.49,-21.39,0,*74
1508061621.3,5834,15.25,74942.3,12.67,-22.77,-23.65,0,*77
1508061622.51,5835,15.19,74922.8,12.65,-21.77,-22.37,0,*71
1508061623.75,5836,15.25,74924.5,12.63,-20.09,-21.03,0,*78
1508061625.0,5837,15.25,74934.3,12.63,-21.09,-21.83,0,*70
1508061626.21,5838,15.19,74926.8,12.61,-20.43,-21.17,0,*7F
1508061627.43,5839,15.19,74932.5,12.59,-19.81,-20.63,0,*73
1508061628.63,5840,15.25,74924.3,12.61,-19.99,-20.73,0,*7E
1508061629.84,5841,15.19,74932.3,12.59,-19.51,-20.43,0,*73
1508061631.04,5842,15.25,74932.0,12.61,-19.75,-20.69,0,*75
1508061632.26,5843,15.25,74928.0,12.59,-21.83,-22.67,0,*71
1508061633.49,5844,15.19,74926.0,12.57,-21.73,-22.53,0,*70
1508061634.72,5845,15.19,74934.0,12.57,-21.13,-21.93,0,*78
1508061635.91,5846,15.19,74934.3,12.55,-21.43,-22.11,0,*75
1508061637.13,5847,15.25,74938.3,12.55,-21.33,-22.07,0,*74
1508061638.38,5848,15.25,74936.3,12.51,-20.83,-21.53,0,*77
1508061639.61,5849,15.25,74940.0,12.51,-21.17,-21.83,0,*77
1508061640.83,5850,15.19,74926.5,12.51,-21.97,-22.87,0,*70
1508061642.08,5851,15.19,74926.3,12.45,-21.87,-22.67,0,*7B
1508061643.35,5852,15.19,74928.5,12.45,-20.83,-21.57,0,*7D
1508061644.6,5853,15.19,74930.0,12.45,-20.35,-21.13,0,*71
1508061645.84,5854,15.19,74932.3,12.45,-19.71,-20.39,0,*75
1508061647.12,5855,15.25,74936.3,12.49,-19.85,-20.53,0,*7F
1508061648.36,5856,15.19,74936.0,12.45,-20.19,-20.93,0,*73
1508061649.59,5857,15.19,74936.3,12.43,-19.75,-20.49,0,*73
1508061650.84,5858,15.19,74936.8,12.45,-20.35,-21.17,0,*7E
1508061652.06,5859,15.19,74938.0,12.43,-20.69,-21.57,0,*74
1508061653.31,5860,15.19,74938.5,12.41,-19.91,-20.53,0,*74
1508061654.53,5861,15.19,74940.8,12.43,-19.99,-20.79,0,*77
1508061655.81,5862,15.25,74940.3,12.41,-20.99,-21.83,0,*78
1508061657.07,5863,15.19,74940.8,12.41,-21.03,-21.77,0,*70
1508061658.29,5864,15.19,74944.0,12.41,-20.29,-21.17,0,*78
1508061659.57,5865,15.19,74946.0,12.41,-19.61,-20.19,0,*70
1508061660.8,5866,15.19,74946.0,12.43,-18.69,-19.27,0,*7F
1508061662.05,5867,15.19,74944.0,12.41,-18.55,-19.17,0,*70
1508061663.25,5868,15.19,74948.5,12.43,-19.13,-19.91,0,*70
1508061664.45,5869,15.19,74950.0,12.43,-19.17,-19.75,0,*7F
1508061665.69,5870,15.19,74950.0,12.45,-19.17,-19.75,0,*71
1508061666.97,5871,15.19,74950.8,12.49,-18.93,-19.65,0,*70
1508061668.17,5872,15.19,74950.3,12.51,-19.47,-20.25,0,*7C
1508061669.42,5873,15.19,74948.3,12.45,-20.05,-20.79,0,*7D
1508061670.64,5874,15.19,74944.3,12.45,-20.93,-21.73,0,*7E
1508061671.92,5875,15.19,74944.8,12.45,-21.33,-22.17,0,*75
1508061673.17,5876,15.19,74948.0,12.41,-21.33,-22.07,0,*73
1508061674.42,5877,15.19,74946.8,12.41,-21.03,-21.93,0,*7F
1508061675.65,5878,15.19,74944.8,12.41,-20.69,-21.39,0,*7D
1508061676.89,5879,15.19,74946.0,12.39,-20.79,-21.57,0,*7A
1508061678.09,5880,15.19,74944.5,12.39,-20.09,-20.73,0,*7C
1508061679.31,5881,15.19,74944.8,12.39,-19.81,-20.63,0,*76
1508061680.55,5882,15.19,74948.5,12.37,-20.35,-21.17,0,*7C
1508061681.8,5883,15.19,74944.5,12.37,-20.73,-21.53,0,*7F
1508061683.04,5884,15.19,74944.0,12.37,-19.41,-19.99,0,*7E
1508061684.31,5885,15.19,74944.8,12.37,-19.41,-20.15,0,*71
1508061685.52,5886,15.19,74942.3,12.39,-19.95,-20.63,0,*74
1508061686.77,5887,15.19,74944.8,12.39,-18.89,-19.57,0,*74
1508061688.0,5888,15.19,74944.3,12.41,-18.45,-19.17,0,*70
1508061689.2,5889,15.19,74944.0,12.43,-19.07,-19.75,0,*70
1508061690.46,5890,15.19,74948.5,12.41,-19.23,-19.91,0,*76
1508061691.69,5891,15.19,74946.3,12.41,-19.13,-19.75,0,*7E
1508061692.94,5892,15.19,74944.0,12.43,-18.55,-19.27,0,*7B
1508061694.13,5893,15.19,74940.5,12.43,-18.07,-18.83,0,*72
1508061695.35,5894,15.19,74936.0,12.49,-18.45,-19.07,0,*74
1508061696.62,5895,15.19,74950.5,12.45,-18.55,-19.27,0,*7A
1508061697.87,5896,15.19,74946.3,12.49,-19.41,-20.29,0,*75
1508061699.13,5897,15.19,74942.0,12.45,-19.07,-19.61,0,*7C
1508061700.36,5898,15.19,74946.5,12.45,-19.13,-19.75,0,*73
1508061701.62,5899,15.19,74948.3,12.49,-18.79,-19.41,0,*74
1508061702.84,5900,15.19,74944.3,12.49,-18.73,-19.37,0,*7E
1508061704.1,5901,15.19,74940.8,12.49,-19.65,-20.43,0,*70
1508061705.37,5902,15.19,74946.5,12.49,-19.27,-19.95,0,*74
1508061706.62,5903,15.19,74946.3,12.49,-18.65,-19.27,0,*7B
1508061707.85,5904,15.19,74946.0,12.49,-18.65,-19.37,0,*7D
1508061709.06,5905,15.19,74944.8,12.51,-19.17,-19.95,0,*79
1508061710.27,5906,15.19,74946.8,12.53,-18.45,-19.07,0,*75
1508061711.49,5907,15.19,74942.0,12.53,-18.73,-19.51,0,*72
1508061712.7,5908,15.19,74942.0,12.53,-18.41,-19.07,0,*7F
1508061713.92,5909,15.19,74946.5,12.53,-18.25,-18.99,0,*7A
1508061715.14,5910,15.19,74946.8,12.55,-18.35,-18.99,0,*75
1508061716.36,5911,15.19,74950.5,12.55,-17.93,-18.69,0,*78
1508061717.63,5912,15.19,74944.0,12.57,-18.55,-19.27,0,*77
1508061718.85,5913,15.19,74948.3,12.57,-18.41,-19.03,0,*75
1508061720.1,5914,15.19,74946.8,12.57,-18.65,-19.27,0,*72
1508061721.32,5915,15.19,74942.8,12.57,-18.25,-18.99,0,*73
1508061722.56,5916,15.19,74942.8,12.61,-19.57,-20.43,0,*7D
1508061723.75,5917,15.19,74932.8,12.59,-20.93,-21.73,0,*77
1508061725.0,5918,15.19,74934.0,12.57,-19.85,-20.69,0,*71
1508061726.25,5919,15.19,74934.0,12.57,-20.05,-20.83,0,*76
1508061727.49,5920,15.19,74934.8,12.55,-19.85,-20.53,0,*71
1508061728.72,5921,15.19,74930.0,12.55,-19.47,-20.19,0,*70
1508061729.97,5922,15.19,74932.0,12.55,-19.41,-20.19,0,*75
1508061731.17,5923,15.19,74940.0,12.55,-19.13,-19.99,0,*71
1508061732.42,5924,15.19,74938.8,12.55,-19.57,-20.35,0,*7A
1508061733.61,5925,15.19,74938.5,12.55,-20.69,-21.43,0,*7C
1508061734.84,5926,15.19,74940.3,12.53,-19.17,-19.95,0,*7A
1508061736.08,5927,15.19,74942.0,12.53,-18.89,-19.51,0,*75
1508061737.31,5928,15.19,74944.0,12.55,-18.65,-19.41,0,*7F
1508061738.53,5929,15.19,74940.3,12.55,-18.79,-19.41,0,*73
1508061739.75,5930,15.19,74944.5,12.55,-19.47,-20.19,0,*70
1508061740.96,5931,15.19,74942.0,12.55,-19.17,-19.99,0,*76
1508061742.2,5932,15.19,74944.0,12.55,-18.55,-19.27,0,*77
1508061743.45,5933,15.19,74944.0,12.57,-18.25,-18.93,0,*7D
1508061744.7,5934,15.19,74942.0,12.57,-18.69,-19.41,0,*7C
1508061745.93,5935,15.19,74944.3,12.57,-18.07,-18.69,0,*7E
1508061747.15,5936,15.19,74940.5,12.61,-18.11,-18.89,0,*71
1508061748.35,5937,15.19,74940.0,12.59,-18.17,-18.65,0,*7F
1508061749.57,5938,15.19,74938.8,12.61,-18.11,-18.89,0,*7F
1508061750.79,5939,15.19,74946.5,12.61,-17.83,-18.55,0,*7B
1508061752.06,5940,15.19,74936.3,12.63,-18.55,-19.23,0,*73
1508061753.29,5941,15.19,74944.0,12.65,-18.79,-19.41,0,*7E
1508061754.53,5942,15.19,74942.0,12.63,-19.17,-19.95,0,*7B
1508061755.79,5943,15.19,74936.3,12.63,-19.31,-20.09,0,*71
1508061757.05,5944,15.19,74942.5,12.63,-18.55,-19.23,0,*77
1508061758.26,5945,15.19,74942.8,12.65,-17.87,-18.49,0,*7D
1508061759.54,5946,15.19,74938.5,12.67,-17.59,-18.31,0,*70
1508061760.76,5947,15.19,74940.3,12.69,-17.69,-18.35,0,*78
1508061761.98,5948,15.19,74944.8,12.67,-18.21,-18.79,0,*72
1508061763.24,5949,15.19,74942.8,12.67,-17.87,-18.35,0,*78
1508061764.48,5950,15.19,74940.3,12.69,-17.93,-18.59,0,*71
1508061765.7,5951,15.19,74946.5,12.69,-18.45,-19.27,0,*7C
1508061766.9,5952,15.19,74944.3,12.69,-18.07,-18.83,0,*76
1508061768.09,5953,15.19,74950.5,12.73,-18.17,-18.79,0,*78
1508061769.32,5954,15.19,74942.0,12.73,-18.59,-19.37,0,*7E
1508061770.54,5955,15.19,74942.5,12.73,-18.17,-18.89,0,*71
1508061771.76,5956,15.19,74940.0,12.75,-18.41,-19.17,0,*71
1508061773.02,5957,15.19,74928.8,12.75,-19.31,-20.09,0,*73
1508061774.22,5958,15.19,74934.5,12.73,-18.41,-19.03,0,*7C
1508061775.45,5959,15.19,74938.8,12.75,-17.59,-18.25,0,*78
1508061776.72,5960,15.19,74936.0,12.75,-17.59,-18.35,0,*73
1508061777.92,5961,15.19,74940.0,12.77,-18.83,-19.71,0,*79
1508061779.12,5962,15.19,74940.8,12.77,-18.11,-18.73,0,*72
1508061780.34,5963,15.19,74936.5,12.77,-17.73,-18.35,0,*7A
1508061781.59,5964,15.19,74942.0,12.77,-17.63,-18.35,0,*7C
1508061782.83,5965,15.19,74940.8,12.79,-17.31,-18.01,0,*73
1508061784.11,5966,15.19,74942.0,12.79,-17.17,-17.79,0,*74
1508061785.3,5967,15.19,74944.8,12.81,-17.31,-18.07,0,*70
1508061786.55,5968,15.19,74944.3,12.81,-17.59,-18.35,0,*70
1508061787.76,5969,15.19,74938.3,12.85,-18.11,-18.89,0,*71
1508061788.98,5970,15.19,74934.0,12.85,-18.35,-19.03,0,*7C
1508061790.22,5971,15.19,74928.0,12.83,-18.17,-18.93,0,*73
1508061791.42,5972,15.19,74934.0,12.85,-18.07,-18.73,0,*79
1508061792.61,5973,15.19,74930.0,12.85,-18.21,-18.99,0,*78
1508061793.8,5974,15.19,74934.3,12.85,-18.11,-18.83,0,*77
1508061795.03,5975,15.19,74938.3,12.85,-17.93,-18.59,0,*74
1508061796.27,5976,15.19,74930.0,12.85,-17.79,-18.55,0,*7F
1508061797.46,5977,15.19,74934.0,12.85,-18.11,-18.99,0,*7F
1508061798.7,5978,15.19,74938.0,12.87,-18.07,-18.93,0,*7F
1508061799.95,5979,15.19,74944.5,12.87,-18.35,-19.47,0,*77
1508061801.19,5980,15.19,74942.3,12.87,-18.99,-19.85,0,*79
1508061802.41,5981,15.19,74946.8,12.85,-19.07,-19.85,0,*7C
1508061803.63,5982,15.19,74942.3,12.85,-20.05,-20.83,0,*7B
1508061804.85,5983,15.19,74942.3,12.85,-18.73,-19.41,0,*74
1508061806.06,5984,15.19,74942.3,12.83,-18.11,-18.99,0,*75
1508061807.31,5985,15.19,74926.5,12.83,-19.99,-21.03,0,*7C
1508061808.54,5986,15.19,74934.3,12.81,-19.85,-20.63,0,*77
1508061809.74,5987,15.19,74936.5,12.81,-18.65,-19.51,0,*72
1508061810.97,5988,15.19,74932.5,12.81,-18.31,-19.13,0,*7A
1508061812.19,5989,15.19,74936.3,12.83,-18.41,-19.17,0,*7A
1508061813.44,5990,15.13,74928.5,12.83,-17.97,-18.65,0,*72
1508061814.66,5991,15.19,74928.3,12.85,-18.35,-19.03,0,*73
1508061815.91,5992,15.19,74916.8,12.83,-17.97,-18.65,0,*70
1508061817.15,5993,15.19,74930.5,12.83,-18.55,-19.47,0,*71
1508061818.34,5994,15.19,74928.8,12.85,-18.07,-18.83,0,*7E
1508061819.59,5995,15.13,74902.3,12.85,-18.35,-19.27,0,*71
1508061820.81,5996,15.13,74908.0,12.85,-20.83,-21.77,0,*7A
1508061822.03,5997,15.19,74934.3,12.81,-19.85,-20.63,0,*77
1508061823.24,5998,15.19,74942.0,12.81,-19.13,-19.99,0,*78
1508061824.5,5999,15.19,74928.3,12.81,-19.65,-20.49,0,*7F
1508061825.72,6000,15.19,74936.0,12.79,-19.51,-20.29,0,*73
1508061826.94,6001,15.19,74932.5,12.81,-18.35,-19.07,0,*70
1508061828.13,6002,15.19,74936.3,12.81,-18.17,-18.99,0,*75
1508061829.37,6003,15.19,74936.3,12.83,-18.17,-18.93,0,*7C
1508061830.57,6004,15.13,74936.5,12.81,-18.07,-18.99,0,*72
1508061831.8,6005,15.13,74936.3,12.81,-18.79,-19.57,0,*79
1508061833.0,6006,15.19,74940.8,12.81,-18.99,-19.99,0,*76
1508061834.25,6007,15.13,74942.5,12.83,-18.79,-19.65,0,*78
1508061835.48,6008,15.19,74944.5,12.83,-18.41,-19.17,0,*79
1508061836.7,6009,15.19,74942.5,12.81,-18.45,-19.23,0,*79
1508061837.94,6010,15.13,74944.0,12.83,-18.11,-18.93,0,*78
1508061839.15,6011,15.19,74944.5,12.83,-18.17,-19.03,0,*77
1508061840.34,6012,15.19,74946.0,12.85,-18.07,-18.83,0,*7A
1508061841.57,6013,15.19,74946.5,12.85,-17.97,-18.73,0,*72
1508061842.79,6014,15.19,74946.8,12.87,-17.73,-18.49,0,*74
1508061844.03,6015,15.19,74946.5,12.87,-17.73,-18.55,0,*78
1508061845.25,6016,15.13,74946.8,12.87,-18.45,-19.37,0,*74
1508061846.49,6017,15.13,74942.8,12.87,-17.93,-18.69,0,*7B
1508061847.72,6018,15.19,74944.0,12.89,-18.17,-18.93,0,*7C
1508061848.94,6019,15.13,74942.5,12.89,-18.45,-19.23,0,*70
1508061850.19,6020,15.13,74942.8,12.87,-18.49,-19.27,0,*7C
1508061851.41,6021,15.19,74944.3,12.89,-17.93,-18.69,0,*70
1508061852.65,6022,15.19,74944.5,12.91,-18.11,-18.89,0,*71
1508061853.93,6023,15.13,74942.8,12.91,-18.31,-19.27,0,*77
1508061855.15,6024,15.19,74946.5,12.89,-18.35,-19.13,0,*7A
1508061856.4,6025,15.19,74950.5,12.91,-17.55,-18.45,0,*79
1508061857.64,6026,15.13,74944.8,12.91,-18.01,-18.79,0,*7B
1508061858.84,6027,15.13,74946.0,12.95,-17.83,-18.69,0,*7A
1508061860.06,6028,15.19,74944.3,12.95,-17.79,-18.45,0,*7E
1508061861.29,6029,15.13,74944.8,12.97,-17.35,-18.11,0,*74
1508061862.57,6030,15.13,74942.0,12.97,-17.55,-18.35,0,*7C
1508061863.77,6031,15.13,74940.8,12.99,-18.17,-18.99,0,*7C
1508061865.0,6032,15.13,74940.8,12.99,-18.35,-19.13,0,*7C
1508061866.23,6033,15.13,74938.5,12.99,-18.17,-18.93,0,*74
1508061867.46,6034,15.13,74940.5,12.99,-17.73,-18.55,0,*74
1508061868.72,6035,15.13,74942.5,12.99,-19.41,-20.53,0,*77
1508061869.95,6036,15.13,74940.5,12.99,-18.65,-19.61,0,*78
1508061871.17,6037,15.13,74942.0,12.99,-17.93,-18.83,0,*72
1508061872.4,6038,15.13,74938.8,12.99,-18.35,-19.13,0,*76
1508061873.63,6039,15.13,74942.3,12.99,-17.79,-18.69,0,*7C
1508061874.85,6040,15.13,74936.8,12.99,-17.87,-18.55,0,*7C
1508061876.08,6041,15.13,74942.0,12.99,-17.93,-18.69,0,*77
1508061877.34,6042,15.13,74940.0,13.01,-18.31,-19.13,0,*7F
1508061878.57,6043,15.13,74942.8,13.01,-17.87,-18.69,0,*70
1508061879.82,6044,15.13,74942.5,13.01,-17.79,-18.65,0,*7A
1508061881.02,6045,15.13,74942.5,13.03,-17.69,-18.45,0,*7A
1508061882.24,6046,15.13,74940.0,13.03,-17.69,-18.35,0,*7E
1508061883.47,6047,15.13,74942.0,13.05,-17.49,-18.21,0,*7E
1508061884.69,6048,15.13,74942.8,13.03,-17.87,-18.89,0,*77
1508061885.97,6049,15.13,74944.5,13.05,-17.63,-18.31,0,*79
1508061887.22,6050,15.13,74940.8,13.05,-18.07,-18.89,0,*7F
1508061888.48,6051,15.13,74940.0,13.05,-17.97,-18.73,0,*7D
1508061889.67,6052,15.13,74942.0,13.07,-18.25,-19.03,0,*7C
1508061890.89,6053,15.13,74946.3,13.07,-17.63,-18.45,0,*73
1508061892.11,6054,15.13,74946.8,13.07,-17.63,-18.41,0,*70
1508061893.31,6055,15.19,74942.8,13.07,-18.07,-18.83,0,*72
1508061894.51,6056,15.13,74940.3,13.07,-17.83,-18.73,0,*7D
1508061895.76,6057,15.13,74940.5,13.07,-17.63,-18.55,0,*76
1508061897.0,6058,15.13,74942.0,13.07,-17.63,-18.55,0,*79
1508061898.19,6059,15.13,74942.8,13.11,-18.07,-18.99,0,*72
1508061899.45,6060,15.13,74946.8,13.09,-17.49,-18.35,0,*72
1508061900.65,6061,15.13,74946.0,13.11,-17.83,-18.49,0,*77
1508061901.87,6062,15.13,74942.0,13.11,-17.97,-19.17,0,*7B
1508061903.07,6063,15.13,74936.3,13.11,-18.45,-19.37,0,*78
1508061904.26,6064,15.13,74942.5,13.11,-18.17,-19.07,0,*7B
1508061905.46,6065,15.19,74942.5,13.11,-17.83,-18.65,0,*7D
1508061906.71,6066,15.13,74936.5,13.11,-18.01,-18.93,0,*72
1508061907.93,6067,15.13,74938.8,13.13,-17.83,-18.65,0,*7D
1508061909.15,6068,15.13,74940.0,13.11,-17.73,-18.59,0,*70
1508061910.34,6069,15.13,74938.8,13.11,-18.11,-18.79,0,*78
1508061911.59,6070,15.13,74938.0,13.13,-17.55,-18.45,0,*72
1508061912.84,6071,15.13,74936.3,13.13,-18.45,-19.41,0,*78
1508061914.02,6072,15.13,74938.3,13.11,-18.21,-19.07,0,*79
1508061915.27,6073,15.13,74934.3,13.11,-18.01,-18.89,0,*7D
1508061916.52,6074,15.13,74938.5,13.13,-17.59,-18.45,0,*7A
1508061917.73,6075,15.13,74938.3,13.17,-18.07,-18.83,0,*71
1508061918.96,6076,15.13,74934.8,13.13,-17.83,-18.65,0,*7D
1508061920.18,6077,15.13,74938.0,13.13,-18.21,-19.17,0,*7F
1508061921.44,6078,15.13,74938.8,13.13,-18.73,-19.65,0,*72
1508061922.69,6079,15.13,74936.3,13.13,-18.35,-19.17,0,*74
1508061923.96,6080,15.13,74938.5,13.17,-19.31,-20.15,0,*7B
1508061925.19,6081,15.13,74932.8,13.13,-18.49,-19.37,0,*7A
1508061926.41,6082,15.13,74936.0,13.13,-18.21,-19.17,0,*75
1508061927.67,6083,15.13,74934.3,13.13,-18.35,-19.37,0,*73
1508061928.94,6084,15.13,74938.5,13.13,-19.23,-20.15,0,*78
1508061930.19,6085,15.13,74938.5,13.11,-19.41,-20.19,0,*73
1508061931.45,6086,15.13,74936.3,13.13,-18.65,-19.57,0,*75
1508061932.68,6087,15.13,74934.5,13.17,-19.13,-20.05,0,*7D
1508061933.91,6088,15.13,74936.5,13.11,-17.97,-18.65,0,*7B
1508061935.16,6089,15.13,74936.0,13.13,-18.31,-19.17,0,*7F
1508061936.38,6090,15.13,74938.0,13.13,-18.21,-19.07,0,*77
1508061937.66,6091,15.13,74940.3,13.13,-18.59,-19.57,0,*7C
1508061938.94,6092,15.13,74936.3,13.13,-19.23,-20.19,0,*73
1508061940.14,6093,15.13,74940.5,13.11,-19.03,-20.09,0,*73
1508061941.34,6094,15.13,74938.5,13.11,-19.03,-19.99,0,*77
1508061942.62,6095,15.13,74942.5,13.13,-19.27,-20.15,0,*7C
1508061943.85,6096,15.13,74942.5,13.11,-19.41,-20.63,0,*7C
1508061945.13,6097,15.13,74938.0,13.09,-19.27,-20.15,0,*75
1508061946.38,6098,15.13,74940.5,13.09,-18.79,-19.85,0,*73
1508061947.62,6099,15.13,74940.8,13.09,-19.13,-19.91,0,*7A
1508061948.85,6100,15.13,74940.5,13.09,-19.07,-19.99,0,*76
1508061950.11,6101,15.13,74942.5,13.09,-19.31,-20.25,0,*7F
1508061951.31,6102,15.13,74938.5,13.07,-18.73,-19.51,0,*7C
1508061952.56,6103,15.13,74936.0,13.09,-18.55,-19.47,0,*70
1508061953.79,6104,15.13,74938.5,13.07,-19.03,-20.19,0,*7A
1508061955.01,6105,15.13,74938.8,13.09,-18.21,-19.07,0,*71
1508061956.23,6106,15.13,74938.3,13.07,-19.03,-20.19,0,*78
1508061957.48,6107,15.13,74934.8,13.09,-18.83,-19.85,0,*71
1508061958.76,6108,15.13,74942.3,13.09,-17.63,-18.55,0,*73
1508061959.95,6109,15.13,74942.0,13.11,-18.21,-19.17,0,*75
1508061961.23,6110,15.13,74942.8,13.09,-17.59,-18.35,0,*75
1508061962.49,6111,15.13,74942.0,13.13,-17.41,-18.11,0,*70
1508061963.77,6112,15.13,74940.8,13.13,-17.59,-18.35,0,*7C
1508061965.01,6113,15.13,74940.5,13.17,-17.41,-18.25,0,*71
1508061966.26,6114,15.13,74940.5,13.17,-18.55,-19.37,0,*7E
1508061967.46,6115,15.13,74938.5,13.19,-17.35,-18.11,0,*7D
1508061968.69,6116,15.13,74940.5,13.19,-17.21,-18.11,0,*7B
1508061969.93,6117,15.13,74942.3,13.19,-17.17,-17.93,0,*7A
1508061971.18,6118,15.13,74942.3,13.21,-17.59,-18.45,0,*70
1508061972.43,6119,15.13,74938.8,13.21,-17.45,-18.25,0,*7A
1508061973.62,6120,15.13,74940.8,13.23,-17.69,-18.45,0,*7A
1508061974.81,6121,15.13,74942.8,13.23,-17.31,-18.17,0,*71
1508061976.01,6122,15.13,74940.5,13.25,-17.87,-18.73,0,*7B
1508061977.26,6123,15.13,74942.0,13.25,-17.55,-18.35,0,*77
1508061978.52,6124,15.13,74942.0,13.27,-17.79,-18.55,0,*7A
1508061979.8,6125,15.13,74940.0,13.27,-17.25,-17.97,0,*73
1508061980.99,6126,15.13,74940.8,13.29,-17.87,-18.83,0,*7C
1508061982.24,6127,15.13,74940.8,13.29,-17.59,-18.35,0,*73
1508061983.45,6128,15.13,74938.8,13.29,-17.87,-18.73,0,*7D
1508061984.67,6129,15.13,74938.3,13.31,-16.93,-17.83,0,*71
1508061985.89,6130,15.13,74938.5,13.35,-16.75,-17.49,0,*73
1508061987.14,6131,15.13,74940.0,13.33,-17.25,-17.93,0,*77
1508061988.36,6132,15.13,74942.3,13.35,-16.89,-17.69,0,*70
1508061989.61,6133,15.13,74934.3,13.35,-17.07,-18.11,0,*76
1508061990.88,6134,15.13,74938.8,13.35,-17.55,-18.31,0,*74
1508061992.13,6135,15.13,74938.3,13.37,-17.21,-17.97,0,*77
1508061993.33,6136,15.13,74936.0,13.41,-17.73,-18.49,0,*7E
1508061994.58,6137,15.13,74940.5,13.41,-17.07,-17.79,0,*70
1508061995.85,6138,15.13,74938.3,13.43,-18.01,-18.93,0,*7F
1508061997.09,6139,15.13,74942.8,13.45,-17.03,-17.79,0,*7E
1508061998.32,6140,15.13,74942.5,13.45,-17.11,-17.87,0,*72
1508061999.51,6141,15.13,74940.8,13.45,-16.89,-17.73,0,*78
1508062000.73,6142,15.13,74944.8,13.47,-17.49,-18.25,0,*78
1508062001.98,6143,15.13,74940.8,13.47,-17.07,-17.83,0,*70
1508062003.23,6144,15.13,74944.5,13.47,-17.41,-18.17,0,*77
1508062004.42,6145,15.13,74940.3,13.49,-18.21,-19.03,0,*75
1508062005.67,6146,15.13,74940.8,13.47,-18.73,-19.61,0,*7B
1508062006.87,6147,15.13,74946.0,13.49,-17.35,-18.21,0,*7C
1508062008.09,6148,15.13,74940.0,13.49,-18.49,-19.41,0,*70
1508062009.28,6149,15.13,74930.3,13.49,-18.07,-18.99,0,*7F
1508062010.55,6150,15.13,74924.3,13.51,-18.35,-19.31,0,*7C
1508062011.77,6151,15.13,74930.0,13.51,-17.83,-18.69,0,*73
1508062013.0,6152,15.13,74934.0,13.49,-17.45,-18.11,0,*7C
1508062014.22,6153,15.13,74928.5,13.51,-17.69,-18.49,0,*77
1508062015.44,6154,15.13,74934.5,13.51,-18.07,-19.13,0,*79
1508062016.66,6155,15.13,74928.0,13.51,-19.17,-19.95,0,*76
1508062017.91,6156,15.13,74934.5,13.51,-18.55,-19.47,0,*7D
1508062019.12,6157,15.13,74936.5,13.51,-18.25,-19.03,0,*7B
1508062020.34,6158,15.13,74932.8,13.51,-18.83,-19.95,0,*77
1508062021.54,6159,15.13,74944.0,13.49,-19.17,-20.05,0,*70
1508062022.78,6160,15.13,74946.5,13.49,-17.79,-18.55,0,*72
1508062024.0,6161,15.13,74940.0,13.51,-18.41,-19.13,0,*7D
1508062025.24,6162,15.13,74934.3,13.51,-17.79,-18.69,0,*76
1508062026.51,6163,15.13,74932.5,13.51,-18.35,-19.27,0,*7B
1508062027.73,6164,15.13,74938.3,13.47,-17.73,-18.69,0,*7D
1508062028.93,6165,15.13,74942.8,13.49,-17.69,-18.49,0,*7B
1508062030.17,6166,15.13,74946.0,13.49,-19.41,-20.35,0,*7C
1508062031.43,6167,15.13,74932.5,13.51,-19.61,-20.63,0,*75
1508062032.64,6168,15.13,74936.5,13.47,-18.25,-19.07,0,*74
1508062033.88,6169,15.13,74938.8,13.49,-17.59,-18.35,0,*7F
1508062035.1,6170,15.13,74940.3,13.49,-17.63,-18.49,0,*75
1508062036.31,6171,15.13,74938.8,13.51,-17.83,-18.83,0,*75
1508062037.53,6172,15.13,74938.0,13.51,-17.35,-18.21,0,*73
1508062038.73,6173,15.13,74942.8,13.53,-17.87,-18.83,0,*71
1508062039.99,6174,15.13,74942.5,13.51,-17.63,-18.55,0,*75
1508062041.24,6175,15.13,74942.5,13.51,-17.17,-18.07,0,*70
1508062042.46,6176,15.13,74946.0,13.53,-18.01,-18.83,0,*75
1508062043.68,6177,15.13,74940.3,13.53,-17.45,-18.21,0,*73
1508062044.96,6178,15.13,74940.8,13.55,-17.97,-18.89,0,*77
1508062046.22,6179,15.13,74940.0,13.55,-17.59,-18.59,0,*79
1508062047.47,6180,15.13,74944.8,13.53,-17.59,-18.31,0,*77
1508062048.69,6181,15.13,74940.3,13.53,-16.89,-17.63,0,*72
1508062049.97,6182,15.13,74942.5,13.57,-16.51,-17.41,0,*70
1508062051.19,6183,15.13,74940.5,13.55,-17.49,-18.25,0,*76
1508062052.39,6184,15.13,74942.8,13.59,-16.79,-17.69,0,*78
1508062053.61,6185,15.13,74942.8,13.63,-17.41,-18.17,0,*7C
1508062054.86,6186,15.13,74946.0,13.63,-16.51,-17.25,0,*71
1508062056.09,6187,15.13,74944.0,13.63,-16.83,-17.79,0,*76
1508062057.31,6188,15.13,74940.5,13.65,-18.17,-18.99,0,*7D
1508062058.55,6189,15.13,74942.3,13.65,-17.93,-18.79,0,*71
1508062059.77,6190,15.13,74944.5,13.65,-17.31,-18.17,0,*79
1508062061.0,6191,15.13,74940.5,13.67,-16.37,-17.11,0,*74
1508062062.26,6192,15.06,74936.0,13.67,-17.11,-17.97,0,*7C
1508062063.53,6193,15.13,74940.8,13.69,-16.31,-17.17,0,*78
1508062064.76,6194,15.13,74944.0,13.69,-16.45,-17.35,0,*7C
1508062065.95,6195,15.13,74940.0,13.71,-17.31,-18.21,0,*7C
1508062067.23,6196,15.13,74940.0,13.73,-16.23,-17.11,0,*73
1508062068.46,6197,15.13,74942.8,13.71,-16.75,-17.63,0,*76
1508062069.71,6198,15.13,74942.5,13.75,-16.51,-17.25,0,*79
1508062070.94,6199,15.06,74938.3,13.75,-16.41,-17.25,0,*79
1508062072.2,6200,15.13,74942.3,13.77,-17.07,-17.83,0,*77
1508062073.42,6201,15.06,74944.5,13.79,-16.79,-17.55,0,*7B
1508062074.65,6202,15.06,74946.3,13.79,-16.37,-17.03,0,*71
1508062075.88,6203,15.13,74946.5,13.79,-17.63,-18.59,0,*70
1508062077.14,6204,15.06,74942.0,13.79,-17.21,-17.97,0,*7C
1508062078.42,6205,15.06,74936.0,13.81,-16.65,-17.41,0,*70
1508062079.66,6206,15.13,74938.5,13.81,-17.97,-19.03,0,*77
1508062080.92,6207,15.13,74938.0,13.85,-17.49,-18.35,0,*75
1508062082.19,6208,15.13,74942.0,13.85,-17.11,-17.93,0,*74
1508062083.44,6209,15.13,74942.0,13.85,-16.83,-17.59,0,*79
1508062084.72,6210,15.06,74946.5,13.81,-17.03,-17.79,0,*7E
1508062085.94,6211,15.13,74944.5,13.87,-17.59,-18.49,0,*7A
1508062087.16,6212,15.13,74938.0,13.89,-17.11,-18.07,0,*71
1508062088.38,6213,15.13,74934.3,13.87,-18.59,-19.51,0,*7F
1508062089.6,6214,15.13,74934.0,13.87,-17.45,-18.45,0,*7E
1508062090.86,6215,15.13,74932.3,13.89,-17.03,-17.79,0,*73
1508062092.08,6216,15.06,74932.8,13.87,-19.85,-20.93,0,*7E
1508062093.33,6217,15.13,74936.8,13.87,-18.31,-19.23,0,*70
1508062094.57,6218,15.06,74938.8,13.87,-17.11,-17.97,0,*73
1508062095.8,6219,15.06,74938.0,13.87,-17.07,-17.83,0,*70
1508062097.01,6220,15.06,74932.8,13.89,-17.83,-18.73,0,*78
1508062098.24,6221,15.06,74938.5,13.87,-17.17,-18.11,0,*7E
1508062099.46,6222,15.06,74936.0,13.89,-17.63,-18.69,0,*7F
1508062100.68,6223,15.06,74932.0,13.89,-17.93,-18.83,0,*75